Location: Allison Elementary School
(34.0784°N, 117.7317°W)
Time: 21:05:59
(UTC+00:00)

CZ-4 R/B - Pass Details

Date: 15 November 2019
Orbit: 530 x 601 km, 97.7° (Epoch: 11 December)

Event Time Altitude Azimuth Distance (km) Brightness Sun altitude
Rises 02:25:41 0° 173° (S) 2,828 5.0 -20.3°
Reaches altitude 10° 02:27:52 10° 177° (S) 1,925 4.1 -20.8°
Maximum altitude 02:32:01 65° 259° (W) 651 1.8 -21.6°
Drops below altitude 10° 02:36:08 10° 342° (NNW) 1,908 4.2 -22.5°
Sets 02:38:18 0° 345° (NNW) 2,801 5.0 -22.9°
